Location: *
(58.4167°N, 22.5000°E)
Time: 05:38:33
(UTC+00:00)

Cosmos 1674 - Pass Details

Date: 22 September 2019
Orbit: 495 x 519 km, 82.5° (Epoch: 19 October)

Event Time Altitude Azimuth Distance (km) Brightness Sun altitude
Rises 18:39:08 0° 343° (NNW) 2,604 7.0 -16.9°
Reaches altitude 10° 18:41:19 10° 336° (NNW) 1,713 6.1 -17.1°
Maximum altitude 18:44:52 42° 265° (W) 719 3.8 -17.5°
Enters shadow 18:48:20 10° 194° (SSW) 1,671 5.1 -17.9°
